| time (UTC) | temp F | wind direction | speed MPH | gust MPH | rain 1hr in | rain 24hr in | rain mn in | humidity % | barometer mb |
| 20260503020131 | 57 | 355 | 0.0 | 0.0 | 0.00 | 0.01 | 0.01 | 54 | 1013.8 |
| 20260503015631 | 58 | 355 | 0.0 | 0.0 | 0.00 | 0.01 | 0.01 | 53 | 1013.8 |
| 20260503015130 | 58 | 355 | 0.0 | 0.0 | 0.00 | 0.01 | 0.01 | 53 | 1013.7 |
| 20260503014631 | 58 | 355 | 0.0 | 0.0 | 0.00 | 0.01 | 0.01 | 52 | 1013.6 |
| 20260503014130 | 59 | 355 | 0.0 | 0.0 | 0.00 | 0.01 | 0.01 | 51 | 1013.6 |
| 20260503013630 | 60 | 355 | 0.0 | 0.0 | 0.00 | 0.01 | 0.01 | 50 | 1013.5 |
| 20260503013130 | 60 | 355 | 0.0 | 0.0 | 0.00 | 0.01 | 0.01 | 48 | 1013.5 |
| 20260503012630 | 61 | 355 | 0.0 | 0.0 | 0.00 | 0.01 | 0.01 | 47 | 1013.5 |
| 20260503012131 | 61 | 355 | 0.0 | 0.0 | 0.00 | 0.01 | 0.01 | 46 | 1013.5 |
| 20260503011631 | 62 | 355 | 0.0 | 0.0 | 0.00 | 0.01 | 0.01 | 45 | 1013.5 |
| 20260503011136 | 63 | 355 | 0.0 | 0.0 | 0.00 | 0.01 | 0.01 | 43 | 1013.5 |
| 20260503010634 | 63 | 355 | 0.0 | 0.0 | 0.00 | 0.01 | 0.01 | 42 | 1013.5 |
| 20260503010133 | 64 | 355 | 0.0 | 0.0 | 0.00 | 0.01 | 0.01 | 41 | 1013.5 |
| 20260503005630 | 65 | 355 | 0.0 | 0.0 | 0.00 | 0.01 | 0.01 | 40 | 1013.5 |
| 20260503005130 | 65 | 355 | 0.0 | 0.0 | 0.00 | 0.01 | 0.01 | 37 | 1013.6 |
| 20260503004630 | 65 | 355 | 0.0 | 0.0 | 0.00 | 0.01 | 0.01 | 36 | 1013.6 |
| 20260503004130 | 66 | 355 | 0.0 | 1.0 | 0.00 | 0.01 | 0.01 | 36 | 1013.6 |
| 20260503003628 | 66 | 355 | 0.0 | 1.0 | 0.00 | 0.01 | 0.01 | 35 | 1013.6 |
| 20260503003129 | 66 | 355 | 0.0 | 0.0 | 0.00 | 0.01 | 0.01 | 33 | 1013.6 |
| 20260503002628 | 67 | 355 | 0.0 | 0.0 | 0.00 | 0.01 | 0.01 | 35 | 1013.5 |
| 20260503002129 | 67 | 355 | 0.0 | 3.0 | 0.00 | 0.01 | 0.01 | 33 | 1013.6 |
| 20260503001628 | 67 | 355 | 0.0 | 3.0 | 0.00 | 0.01 | 0.01 | 32 | 1013.6 |
| 20260503001128 | 68 | 351 | 0.0 | 0.0 | 0.00 | 0.01 | 0.01 | 33 | 1013.6 |
| 20260503000628 | 68 | 355 | 0.0 | 0.0 | 0.00 | 0.01 | 0.01 | 32 | 1013.6 |
| 20260503000129 | 68 | 0 | 0.0 | 0.0 | 0.00 | 0.01 | 0.01 | 33 | 1013.6 |
| 20260502235628 | 68 | 0 | 0.0 | 0.0 | 0.00 | 0.01 | 0.01 | 32 | 1013.7 |
| 20260502235356 | 68 | 0 | 0.0 | 0.0 | 0.00 | 0.01 | 0.01 | 31 | 1013.7 |
| 20260502234629 | 67 | 0 | 0.0 | 1.0 | 0.00 | 0.01 | 0.01 | 32 | 1013.7 |
| 20260502234128 | 68 | 0 | 0.0 | 1.0 | 0.00 | 0.01 | 0.01 | 31 | 1013.7 |
| 20260502233628 | 68 | 0 | 0.0 | 0.0 | 0.00 | 0.01 | 0.01 | 31 | 1013.7 |
| 20260502233128 | 68 | 0 | 0.0 | 0.0 | 0.00 | 0.01 | 0.01 | 32 | 1013.8 |
| 20260502232851 | 68 | 0 | 0.0 | 4.0 | 0.00 | 0.01 | 0.01 | 31 | 1013.8 |
| 20260502232128 | 68 | 0 | 0.0 | 4.0 | 0.00 | 0.01 | 0.01 | 31 | 1013.8 |
| 20260502231626 | 69 | 0 | 0.0 | 2.0 | 0.00 | 0.01 | 0.01 | 33 | 1013.8 |
| 20260502231126 | 69 | 0 | 0.0 | 1.0 | 0.00 | 0.01 | 0.01 | 35 | 1013.8 |
| 20260502230624 | 68 | 0 | 0.0 | 1.0 | 0.00 | 0.01 | 0.01 | 34 | 1013.8 |
| 20260502230125 | 68 | 0 | 0.0 | 0.0 | 0.00 | 0.01 | 0.01 | 33 | 1013.9 |
| 20260502225623 | 68 | 0 | 0.0 | 0.0 | 0.00 | 0.01 | 0.01 | 32 | 1013.9 |
| 20260502225120 | 68 | 0 | 0.0 | 1.0 | 0.00 | 0.01 | 0.01 | 33 | 1013.9 |
| 20260502224621 | 68 | 0 | 0.0 | 1.0 | 0.00 | 0.01 | 0.01 | 33 | 1013.9 |
| 20260502224341 | 69 | 0 | 0.0 | 2.0 | 0.00 | 0.01 | 0.01 | 33 | 1013.9 |
| 20260502223620 | 68 | 350 | 0.0 | 4.0 | 0.00 | 0.01 | 0.01 | 31 | 1013.9 |
| 20260502223120 | 68 | 350 | 0.0 | 4.0 | 0.00 | 0.01 | 0.01 | 32 | 1014.0 |
| 20260502222620 | 68 | 0 | 0.0 | 4.0 | 0.00 | 0.01 | 0.01 | 32 | 1013.9 |
| 20260502222120 | 68 | 0 | 0.0 | 1.0 | 0.00 | 0.01 | 0.01 | 37 | 1014.0 |
| 20260502221620 | 68 | 0 | 0.0 | 1.0 | 0.00 | 0.01 | 0.01 | 34 | 1014.0 |
| 20260502221120 | 68 | 0 | 0.0 | 4.0 | 0.00 | 0.01 | 0.01 | 35 | 1014.1 |
| 20260502220620 | 69 | 0 | 0.0 | 5.0 | 0.00 | 0.01 | 0.01 | 33 | 1014.0 |
| 20260502220120 | 69 | 355 | 0.0 | 5.0 | 0.00 | 0.01 | 0.01 | 33 | 1014.0 |
| 20260502215840 | 69 | 0 | 0.0 | 0.0 | 0.00 | 0.01 | 0.01 | 34 | 1014.1 |
| 20260502215121 | 69 | 0 | 0.0 | 0.0 | 0.00 | 0.01 | 0.01 | 34 | 1014.1 |
| 20260502214614 | 68 | 0 | 0.0 | 3.0 | 0.00 | 0.01 | 0.01 | 33 | 1014.2 |
| 20260502214115 | 68 | 0 | 0.0 | 4.0 | 0.00 | 0.01 | 0.01 | 34 | 1014.3 |
| 20260502213615 | 68 | 355 | 0.0 | 4.0 | 0.00 | 0.01 | 0.01 | 35 | 1014.3 |
| 20260502213114 | 68 | 338 | 0.0 | 3.0 | 0.00 | 0.01 | 0.01 | 33 | 1014.3 |
| 20260502212614 | 68 | 11 | 0.0 | 3.0 | 0.00 | 0.01 | 0.01 | 32 | 1014.4 |
| 20260502212114 | 68 | 11 | 0.0 | 1.0 | 0.00 | 0.01 | 0.01 | 33 | 1014.5 |
| 20260502211614 | 69 | 11 | 0.0 | 0.0 | 0.00 | 0.01 | 0.01 | 33 | 1014.5 |
| 20260502211114 | 69 | 12 | 0.0 | 4.0 | 0.00 | 0.01 | 0.01 | 35 | 1014.6 |
| 20260502210615 | 69 | 12 | 0.0 | 4.0 | 0.00 | 0.01 | 0.01 | 35 | 1014.6 |
| 20260502210110 | 69 | 5 | 0.0 | 2.0 | 0.00 | 0.01 | 0.01 | 35 | 1014.7 |
| 20260502205611 | 68 | 5 | 0.0 | 2.0 | 0.00 | 0.01 | 0.01 | 33 | 1014.7 |
| 20260502205110 | 68 | 9 | 0.0 | 1.0 | 0.00 | 0.01 | 0.01 | 38 | 1014.7 |
| 20260502204610 | 68 | 9 | 0.0 | 4.0 | 0.00 | 0.01 | 0.01 | 35 | 1014.7 |
| 20260502204557 | 68 | 9 | 0.0 | 4.0 | 0.00 | 0.01 | 0.01 | 36 | 1014.8 |
| 20260502203610 | 68 | 10 | 0.0 | 3.0 | 0.00 | 0.01 | 0.01 | 37 | 1014.9 |
| 20260502203110 | 67 | 10 | 0.0 | 1.0 | 0.00 | 0.01 | 0.01 | 34 | 1014.9 |
| 20260502202610 | 67 | 10 | 0.0 | 1.0 | 0.00 | 0.01 | 0.01 | 38 | 1015.0 |
| 20260502202110 | 67 | 10 | 0.0 | 1.0 | 0.00 | 0.01 | 0.01 | 36 | 1015.0 |
| 20260502201606 | 67 | 10 | 0.0 | 5.0 | 0.00 | 0.01 | 0.01 | 35 | 1015.1 |
| 20260502201326 | 67 | 10 | 0.0 | 5.0 | 0.00 | 0.01 | 0.01 | 34 | 1015.2 |
| 20260502200606 | 67 | 5 | 0.0 | 1.0 | 0.00 | 0.01 | 0.01 | 37 | 1015.2 |
| 20260502200105 | 67 | 5 | 0.0 | 1.0 | 0.00 | 0.01 | 0.01 | 38 | 1015.3 |
| 20260502195824 | 67 | 5 | 0.0 | 3.0 | 0.00 | 0.01 | 0.01 | 40 | 1015.3 |
| 20260502195104 | 67 | 5 | 0.0 | 5.0 | 0.00 | 0.01 | 0.01 | 34 | 1015.3 |
| 20260502194604 | 67 | 355 | 0.0 | 5.0 | 0.00 | 0.01 | 0.01 | 36 | 1015.4 |
| 20260502194104 | 67 | 347 | 0.0 | 5.0 | 0.00 | 0.01 | 0.01 | 36 | 1015.4 |
| 20260502193603 | 67 | 347 | 0.0 | 1.0 | 0.00 | 0.01 | 0.01 | 39 | 1015.5 |
| 20260502193323 | 66 | 350 | 0.0 | 3.0 | 0.00 | 0.01 | 0.01 | 36 | 1015.5 |
| 20260502192603 | 66 | 350 | 0.0 | 3.0 | 0.00 | 0.01 | 0.01 | 35 | 1015.6 |
| 20260502192104 | 67 | 350 | 0.0 | 1.0 | 0.00 | 0.01 | 0.01 | 36 | 1015.7 |
| 20260502191601 | 66 | 350 | 0.0 | 1.0 | 0.00 | 0.01 | 0.01 | 37 | 1015.8 |
| 20260502191055 | 66 | 355 | 0.0 | 6.0 | 0.00 | 0.01 | 0.01 | 36 | 1015.8 |
| 20260502190549 | 65 | 355 | 0.0 | 6.0 | 0.00 | 0.01 | 0.01 | 37 | 1015.8 |
| 20260502190043 | 66 | 355 | 0.0 | 4.0 | 0.00 | 0.01 | 0.01 | 36 | 1015.9 |
| 20260502185540 | 66 | 355 | 0.0 | 4.0 | 0.00 | 0.01 | 0.01 | 38 | 1015.9 |
| 20260502185039 | 66 | 350 | 0.0 | 4.0 | 0.00 | 0.01 | 0.01 | 37 | 1015.9 |
| 20260502184540 | 66 | 350 | 0.0 | 2.0 | 0.00 | 0.01 | 0.01 | 39 | 1016.0 |
| 20260502184037 | 65 | 350 | 0.0 | 6.0 | 0.00 | 0.01 | 0.01 | 39 | 1016.0 |
| 20260502183536 | 65 | 350 | 0.0 | 6.0 | 0.00 | 0.01 | 0.01 | 37 | 1016.1 |
| 20260502183255 | 66 | 355 | 0.0 | 4.0 | 0.00 | 0.01 | 0.01 | 38 | 1016.1 |
| 20260502182535 | 65 | 351 | 1.0 | 6.0 | 0.00 | 0.01 | 0.01 | 42 | 1016.1 |
| 20260502182034 | 65 | 351 | 1.0 | 6.0 | 0.00 | 0.01 | 0.01 | 39 | 1016.2 |
| 20260502181531 | 65 | 355 | 0.0 | 3.0 | 0.00 | 0.01 | 0.01 | 40 | 1016.1 |
| 20260502181031 | 65 | 355 | 0.0 | 1.0 | 0.00 | 0.01 | 0.01 | 40 | 1016.3 |
| 20260502180530 | 65 | 355 | 0.0 | 1.0 | 0.00 | 0.01 | 0.01 | 40 | 1016.4 |
| 20260502170514 | 64 | 355 | 1.0 | 5.0 | 0.00 | 0.01 | 0.01 | 42 | 1016.8 |
| 20260502164231 | 63 | 346 | 0.0 | 5.0 | 0.00 | 0.01 | 0.01 | 41 | 1016.8 |
| 20260502163510 | 62 | 346 | 0.0 | 2.0 | 0.00 | 0.01 | 0.01 | 39 | 1016.9 |
| 20260502163009 | 63 | 346 | 0.0 | 2.0 | 0.00 | 0.01 | 0.01 | 38 | 1016.9 |
| 20260502162510 | 62 | 346 | 0.0 | 4.0 | 0.00 | 0.01 | 0.01 | 42 | 1016.9 |
| 20260502162225 | 62 | 346 | 0.0 | 4.0 | 0.00 | 0.01 | 0.01 | 38 | 1016.9 |
| 20260502161506 | 62 | 346 | 0.0 | 0.0 | 0.00 | 0.01 | 0.01 | 40 | 1016.9 |
| 20260502161006 | 62 | 346 | 0.0 | 1.0 | 0.00 | 0.01 | 0.01 | 38 | 1016.9 |
| 20260502160730 | 62 | 346 | 0.0 | 1.0 | 0.00 | 0.01 | 0.01 | 38 | 1016.9 |
| 20260502151956 | 60 | 342 | 0.0 | 4.0 | 0.00 | 0.01 | 0.01 | 43 | 1017.0 |
| 20260502151455 | 60 | 342 | 0.0 | 1.0 | 0.00 | 0.01 | 0.01 | 43 | 1016.9 |
| 20260502150956 | 60 | 342 | 0.0 | 2.0 | 0.00 | 0.01 | 0.01 | 44 | 1017.0 |
| 20260502150456 | 59 | 342 | 0.0 | 2.0 | 0.00 | 0.01 | 0.01 | 43 | 1017.0 |
| 20260502123622 | 50 | 317 | 0.0 | 0.0 | 0.00 | 0.01 | 0.01 | 77 | 1015.9 |
| 20260502122902 | 50 | 317 | 0.0 | 0.0 | 0.00 | 0.01 | 0.01 | 77 | 1015.8 |
| 20260502122628 | 49 | 317 | 0.0 | 0.0 | 0.00 | 0.01 | 0.01 | 78 | 1015.8 |
| 20260502121902 | 49 | 317 | 0.0 | 0.0 | 0.00 | 0.01 | 0.01 | 80 | 1015.7 |
| 20260502121851 | 49 | 317 | 0.0 | 0.0 | 0.00 | 0.01 | 0.01 | 81 | 1015.5 |
| 20260502120902 | 49 | 317 | 0.0 | 0.0 | 0.00 | 0.01 | 0.01 | 82 | 1015.4 |
| 20260502120402 | 49 | 317 | 0.0 | 0.0 | 0.00 | 0.01 | 0.01 | 84 | 1015.3 |
| 20260502115907 | 49 | 317 | 0.0 | 0.0 | 0.00 | 0.01 | 0.01 | 85 | 1015.4 |
| 20260502115404 | 49 | 317 | 0.0 | 0.0 | 0.00 | 0.01 | 0.01 | 85 | 1015.3 |
| 20260502114902 | 49 | 317 | 0.0 | 0.0 | 0.00 | 0.01 | 0.01 | 85 | 1015.2 |
| 20260502114402 | 49 | 317 | 0.0 | 0.0 | 0.00 | 0.01 | 0.01 | 85 | 1015.2 |
| 20260502113902 | 49 | 317 | 0.0 | 0.0 | 0.00 | 0.01 | 0.01 | 84 | 1015.1 |
| 20260502113403 | 49 | 317 | 0.0 | 0.0 | 0.00 | 0.01 | 0.01 | 84 | 1015.1 |
| 20260502112903 | 50 | 317 | 0.0 | 0.0 | 0.00 | 0.01 | 0.01 | 84 | 1015.2 |
| 20260502112618 | 50 | 317 | 0.0 | 0.0 | 0.00 | 0.01 | 0.01 | 84 | 1015.1 |
| 20260502111900 | 50 | 317 | 0.0 | 0.0 | 0.00 | 0.01 | 0.01 | 84 | 1015.0 |
| 20260502111357 | 50 | 317 | 0.0 | 0.0 | 0.00 | 0.01 | 0.01 | 84 | 1015.0 |
| 20260502110855 | 50 | 317 | 0.0 | 0.0 | 0.00 | 0.01 | 0.01 | 84 | 1014.9 |
| 20260502110355 | 50 | 317 | 0.0 | 0.0 | 0.00 | 0.01 | 0.01 | 83 | 1014.9 |
| 20260502105854 | 50 | 317 | 0.0 | 0.0 | 0.00 | 0.01 | 0.01 | 83 | 1015.0 |
| 20260502105351 | 50 | 317 | 0.0 | 0.0 | 0.00 | 0.01 | 0.01 | 83 | 1015.0 |
| 20260502104851 | 50 | 317 | 0.0 | 0.0 | 0.00 | 0.01 | 0.01 | 82 | 1015.0 |
| 20260502104351 | 51 | 317 | 0.0 | 0.0 | 0.00 | 0.01 | 0.01 | 82 | 1014.9 |
| 20260502103849 | 51 | 317 | 0.0 | 0.0 | 0.00 | 0.01 | 0.01 | 82 | 1014.9 |
| 20260502103347 | 51 | 317 | 0.0 | 0.0 | 0.00 | 0.01 | 0.01 | 81 | 1014.8 |
| 20260502103335 | 51 | 317 | 0.0 | 0.0 | 0.00 | 0.01 | 0.01 | 82 | 1014.8 |
| 20260502102345 | 51 | 317 | 0.0 | 0.0 | 0.00 | 0.01 | 0.01 | 82 | 1014.7 |
| 20260502101843 | 51 | 317 | 0.0 | 0.0 | 0.00 | 0.01 | 0.01 | 82 | 1014.5 |
| 20260502101832 | 51 | 317 | 0.0 | 0.0 | 0.00 | 0.01 | 0.01 | 81 | 1014.4 |
| 20260502100841 | 51 | 317 | 0.0 | 0.0 | 0.00 | 0.01 | 0.01 | 81 | 1014.3 |
| 20260502100601 | 52 | 317 | 0.0 | 0.0 | 0.00 | 0.01 | 0.01 | 82 | 1014.4 |
| 20260502091336 | 53 | 317 | 0.0 | 0.0 | 0.00 | 0.01 | 0.01 | 79 | 1014.0 |
| 20260502091054 | 53 | 317 | 0.0 | 1.0 | 0.00 | 0.01 | 0.01 | 79 | 1014.0 |
| 20260502090335 | 53 | 317 | 0.0 | 1.0 | 0.00 | 0.01 | 0.01 | 79 | 1014.0 |
| 20260502071331 | 55 | 329 | 0.0 | 4.0 | 0.00 | 0.00 | 0.00 | 69 | 1014.4 |
| 20260502071048 | 55 | 329 | 0.0 | 0.0 | 0.00 | 0.00 | 0.00 | 69 | 1014.3 |
| 20260502070551 | 55 | 329 | 0.0 | 0.0 | 0.00 | 0.00 | 0.00 | 68 | 1014.2 |
| 20260502065831 | 55 | 329 | 0.0 | 0.0 | 0.00 | 0.00 | 0.00 | 67 | 1014.1 |
| 20260502065811 | 55 | 329 | 0.0 | 0.0 | 0.00 | 0.00 | 0.00 | 67 | 1014.1 |
| 20260502064830 | 56 | 329 | 0.0 | 0.0 | 0.00 | 0.00 | 0.00 | 65 | 1014.1 |
| 20260502064330 | 56 | 329 | 0.0 | 0.0 | 0.00 | 0.00 | 0.00 | 65 | 1014.2 |
| 20260502063830 | 56 | 329 | 0.0 | 0.0 | 0.00 | 0.00 | 0.00 | 64 | 1014.2 |
| 20260502063331 | 56 | 329 | 0.0 | 0.0 | 0.00 | 0.00 | 0.00 | 64 | 1014.3 |
| 20260502062831 | 56 | 329 | 0.0 | 0.0 | 0.00 | 0.00 | 0.00 | 64 | 1014.3 |
| 20260502062330 | 56 | 329 | 0.0 | 0.0 | 0.00 | 0.00 | 0.00 | 63 | 1014.1 |
| 20260502061830 | 56 | 329 | 0.0 | 0.0 | 0.00 | 0.00 | 0.00 | 63 | 1014.1 |
| 20260502061330 | 55 | 329 | 0.0 | 0.0 | 0.00 | 0.00 | 0.00 | 63 | 1014.1 |
| 20260502060831 | 54 | 329 | 0.0 | 0.0 | 0.00 | 0.00 | 0.00 | 66 | 1014.1 |
| 20260502060330 | 53 | 329 | 0.0 | 0.0 | 0.00 | 0.00 | 0.00 | 69 | 1014.1 |
| 20260502055828 | 53 | 329 | 0.0 | 0.0 | 0.00 | 0.00 | 0.00 | 72 | 1014.1 |
| 20260502055547 | 52 | 329 | 0.0 | 0.0 | 0.00 | 0.00 | 0.00 | 74 | 1014.0 |
| 20260502054817 | 52 | 329 | 0.0 | 0.0 | 0.00 | 0.00 | 0.00 | 76 | 1014.0 |
| 20260502054310 | 52 | 329 | 0.0 | 0.0 | 0.00 | 0.00 | 0.00 | 77 | 1014.0 |
| 20260502053804 | 51 | 329 | 0.0 | 0.0 | 0.00 | 0.00 | 0.00 | 76 | 1014.1 |
| 20260502053304 | 52 | 329 | 0.0 | 0.0 | 0.00 | 0.00 | 0.00 | 75 | 1014.2 |
| 20260502052804 | 52 | 329 | 0.0 | 0.0 | 0.00 | 0.00 | 0.00 | 74 | 1014.2 |
| 20260502052306 | 52 | 329 | 0.0 | 0.0 | 0.00 | 0.00 | 0.00 | 74 | 1014.1 |
| 20260502051804 | 52 | 329 | 0.0 | 0.0 | 0.00 | 0.00 | 0.00 | 73 | 1014.1 |
| 20260502051750 | 52 | 329 | 0.0 | 0.0 | 0.00 | 0.00 | 0.00 | 72 | 1014.0 |
| 20260502050805 | 53 | 329 | 0.0 | 0.0 | 0.00 | 0.00 | 0.00 | 73 | 1013.9 |
| 20260502050305 | 53 | 329 | 0.0 | 2.0 | 0.00 | 0.00 | 0.00 | 72 | 1013.8 |
| 20260502045805 | 53 | 329 | 0.0 | 2.0 | 0.00 | 0.00 | 0.00 | 71 | 1013.8 |
| 20260502045305 | 54 | 329 | 0.0 | 0.0 | 0.00 | 0.00 | 0.00 | 70 | 1013.7 |
| 20260502044802 | 54 | 329 | 0.0 | 0.0 | 0.00 | 0.00 | 0.00 | 70 | 1013.7 |
| 20260502044303 | 54 | 329 | 0.0 | 0.0 | 0.00 | 0.00 | 0.00 | 69 | 1013.6 |
| 20260502043803 | 55 | 329 | 0.0 | 0.0 | 0.00 | 0.00 | 0.00 | 69 | 1013.5 |
| 20260502043303 | 55 | 329 | 0.0 | 0.0 | 0.00 | 0.00 | 0.00 | 68 | 1013.6 |
| 20260502043248 | 54 | 329 | 0.0 | 0.0 | 0.00 | 0.00 | 0.00 | 69 | 1013.6 |
| 20260502042305 | 54 | 329 | 0.0 | 0.0 | 0.00 | 0.00 | 0.00 | 68 | 1013.7 |
| 20260502041802 | 54 | 329 | 0.0 | 0.0 | 0.00 | 0.00 | 0.00 | 68 | 1013.9 |
| 20260502041302 | 54 | 329 | 0.0 | 0.0 | 0.00 | 0.00 | 0.00 | 69 | 1014.0 |
| 20260502040802 | 54 | 329 | 0.0 | 0.0 | 0.00 | 0.00 | 0.00 | 72 | 1014.1 |
| 20260502040302 | 53 | 329 | 0.0 | 0.0 | 0.00 | 0.00 | 0.00 | 73 | 1014.0 |
| 20260502035802 | 53 | 329 | 0.0 | 0.0 | 0.00 | 0.00 | 0.00 | 74 | 1014.0 |
| 20260502035306 | 53 | 329 | 0.0 | 0.0 | 0.00 | 0.00 | 0.00 | 73 | 1014.0 |
| 20260502034803 | 53 | 329 | 0.0 | 0.0 | 0.00 | 0.00 | 0.00 | 72 | 1013.9 |
| 20260502034533 | 53 | 329 | 0.0 | 0.0 | 0.00 | 0.00 | 0.00 | 70 | 1013.7 |
| 20260502033802 | 53 | 329 | 0.0 | 0.0 | 0.00 | 0.00 | 0.00 | 69 | 1013.7 |
| 20260502033303 | 54 | 329 | 0.0 | 0.0 | 0.00 | 0.00 | 0.00 | 68 | 1013.7 |
| 20260502032802 | 54 | 329 | 0.0 | 0.0 | 0.00 | 0.00 | 0.00 | 67 | 1013.6 |
| 20260502032532 | 54 | 329 | 0.0 | 0.0 | 0.00 | 0.00 | 0.00 | 67 | 1013.6 |
| 20260502031802 | 55 | 329 | 0.0 | 0.0 | 0.00 | 0.00 | 0.00 | 67 | 1013.5 |
| 20260502031302 | 55 | 329 | 0.0 | 0.0 | 0.00 | 0.00 | 0.00 | 67 | 1013.6 |
| 20260502030802 | 55 | 329 | 0.0 | 0.0 | 0.00 | 0.00 | 0.00 | 66 | 1013.5 |
| 20260502030302 | 55 | 329 | 0.0 | 0.0 | 0.00 | 0.00 | 0.00 | 65 | 1013.5 |
| 20260502025802 | 55 | 329 | 0.0 | 0.0 | 0.00 | 0.00 | 0.00 | 63 | 1013.5 |
| 20260502025306 | 56 | 329 | 0.0 | 0.0 | 0.00 | 0.00 | 0.00 | 63 | 1013.5 |
| 20260502024802 | 56 | 329 | 0.0 | 0.0 | 0.00 | 0.00 | 0.00 | 64 | 1013.5 |
| 20260502024302 | 56 | 329 | 0.0 | 0.0 | 0.00 | 0.00 | 0.00 | 62 | 1013.4 |
| 20260502023802 | 56 | 329 | 0.0 | 0.0 | 0.00 | 0.00 | 0.00 | 61 | 1013.2 |
| 20260502023303 | 56 | 329 | 0.0 | 0.0 | 0.00 | 0.00 | 0.00 | 60 | 1013.1 |
| 20260502022803 | 56 | 329 | 0.0 | 0.0 | 0.00 | 0.00 | 0.00 | 60 | 1013.2 |
| 20260502022306 | 57 | 329 | 0.0 | 0.0 | 0.00 | 0.00 | 0.00 | 58 | 1013.1 |
| 20260502021805 | 57 | 329 | 0.0 | 0.0 | 0.00 | 0.00 | 0.00 | 58 | 1012.9 |
| 20260502021527 | 57 | 329 | 0.0 | 0.0 | 0.00 | 0.00 | 0.00 | 58 | 1012.9 |
| 20260502020802 | 57 | 329 | 0.0 | 0.0 | 0.00 | 0.00 | 0.00 | 56 | 1012.8 |